OE3EMC-13 Weather Reports


time (UTC)temp
C
wind
direction
speed
KPH
gust
KPH
rain 1hr
cm
rain 24hr
cm
rain mn
cm
humidity
%
barometer
mb
20260502200313 11 90 3.2 1.6 0.00 0.00 0.00 49 1100.0
20260502195312 11 360 1.6 0.0 0.00 0.00 0.00 52 1100.0
20260502194312 11 360 1.6 0.0 0.00 0.00 0.00 52 1100.0
20260502193312 9 360 1.6 3.2 0.00 0.00 0.00 54 1100.0
20260502192312 9 360 1.6 3.2 0.00 0.00 0.00 54 1100.0
20260502191313 10 67 0.0 0.0 0.00 0.00 0.00 54 1100.0
20260502190312 10 67 0.0 0.0 0.00 0.00 0.00 54 1100.0
20260502185312 11 67 0.0 1.6 0.00 0.00 0.00 50 1100.0
20260502184311 11 67 0.0 1.6 0.00 0.00 0.00 50 1100.0
20260502183312 13 45 0.0 0.0 0.00 0.00 0.00 45 1100.0
20260502182311 13 45 0.0 0.0 0.00 0.00 0.00 45 1100.0
20260502181311 15 90 0.0 0.0 0.00 0.00 0.00 39 1100.0
20260502180313 15 90 0.0 0.0 0.00 0.00 0.00 39 1100.0
20260502170310 21 247 4.8 9.7 0.00 0.00 0.00 31 1100.0
20260502164311 22 202 4.8 12.9 0.00 0.00 0.00 29 1100.0
20260502163310 24 180 4.8 8.0 0.00 0.00 0.00 27 1100.0
20260502162309 24 180 4.8 8.0 0.00 0.00 0.00 27 1100.0
20260502161309 25 360 3.2 3.2 0.00 0.00 0.00 25 1100.0
20260502160309 25 360 3.2 3.2 0.00 0.00 0.00 25 1100.0
20260502152314 27 202 6.4 17.7 0.00 0.00 0.00 24 1100.0
20260502151313 27 225 6.4 8.0 0.00 0.00 0.00 24 1100.0
20260502150314 27 225 6.4 8.0 0.00 0.00 0.00 24 1100.0
20260502130311 26 360 4.8 8.0 0.00 0.00 0.00 24 1100.0
20260502123311 25 202 8.0 17.7 0.00 0.00 0.00 27 1100.0
20260502122312 25 202 8.0 17.7 0.00 0.00 0.00 27 1100.0
20260502121311 25 202 6.4 16.1 0.00 0.00 0.00 29 1100.0
20260502120312 25 202 6.4 16.1 0.00 0.00 0.00 29 1100.0
20260502115311 25 360 4.8 14.5 0.00 0.00 0.00 27 1100.0
20260502114311 25 360 4.8 14.5 0.00 0.00 0.00 27 1100.0
20260502113310 24 225 6.4 14.5 0.00 0.00 0.00 29 1100.0
20260502112311 24 225 6.4 14.5 0.00 0.00 0.00 29 1100.0
20260502111312 23 202 4.8 9.7 0.00 0.00 0.00 32 1100.0
20260502110311 23 202 4.8 9.7 0.00 0.00 0.00 32 1100.0
20260502105311 23 67 1.6 6.4 0.00 0.00 0.00 28 1100.0
20260502104310 23 67 1.6 6.4 0.00 0.00 0.00 28 1100.0
20260502103310 22 45 3.2 1.6 0.00 0.00 0.00 31 1100.0
20260502102309 22 45 3.2 1.6 0.00 0.00 0.00 31 1100.0
20260502101314 22 360 4.8 6.4 0.00 0.00 0.00 29 1100.0
20260502100314 22 360 4.8 6.4 0.00 0.00 0.00 29 1100.0
20260502091313 20 45 4.8 8.0 0.00 0.00 0.00 33 1100.0
20260502090314 20 45 4.8 8.0 0.00 0.00 0.00 33 1100.0
20260502071312 12 180 3.2 11.3 0.00 0.00 0.00 60 1100.0
20260502070313 12 180 3.2 11.3 0.00 0.00 0.00 60 1100.0
20260502065311 11 202 3.2 8.0 0.00 0.00 0.00 65 1100.0
20260502064311 11 202 3.2 8.0 0.00 0.00 0.00 65 1100.0
20260502063311 9 157 1.6 4.8 0.00 0.00 0.00 77 1100.0
20260502062312 9 157 1.6 4.8 0.00 0.00 0.00 77 1100.0
20260502061312 7 202 0.0 3.2 0.00 0.00 0.00 86 1100.0
20260502060311 7 202 0.0 3.2 0.00 0.00 0.00 86 1100.0
20260502055310 6 157 0.0 0.0 0.00 0.00 0.00 88 1100.0
20260502054311 6 157 0.0 0.0 0.00 0.00 0.00 88 1100.0
20260502053310 4 67 0.0 0.0 0.00 0.00 0.00 88 1100.0
20260502052311 4 67 0.0 0.0 0.00 0.00 0.00 88 1100.0
20260502051310 3 45 0.0 0.0 0.00 0.00 0.00 88 1100.0
20260502050309 3 45 0.0 0.0 0.00 0.00 0.00 88 1100.0
20260502045309 2 45 1.6 3.2 0.00 0.00 0.00 88 1100.0
20260502044309 2 45 1.6 3.2 0.00 0.00 0.00 88 1100.0
20260502043309 1 45 1.6 1.6 0.00 0.00 0.00 87 1100.0
20260502042314 1 45 1.6 1.6 0.00 0.00 0.00 87 1100.0
20260502041314 1 22 3.2 3.2 0.00 0.00 0.00 86 1100.0
20260502040314 1 22 3.2 3.2 0.00 0.00 0.00 86 1100.0
20260502035315 1 45 1.6 1.6 0.00 0.00 0.00 86 1100.0
20260502034313 1 45 1.6 1.6 0.00 0.00 0.00 86 1100.0
20260502033314 1 22 3.2 3.2 0.00 0.00 0.00 86 1100.0
20260502032314 1 22 3.2 3.2 0.00 0.00 0.00 86 1100.0
20260502031313 1 45 1.6 3.2 0.00 0.00 0.00 86 1100.0
20260502030313 1 45 1.6 3.2 0.00 0.00 0.00 86 1100.0
20260502025313 1 45 3.2 3.2 0.00 0.00 0.00 85 1100.0
20260502024312 1 45 3.2 3.2 0.00 0.00 0.00 85 1100.0
20260502023313 2 67 3.2 1.6 0.00 0.00 0.00 85 1100.0
20260502022312 2 67 3.2 1.6 0.00 0.00 0.00 85 1100.0
20260502021313 1 67 3.2 4.8 0.00 0.00 0.00 86 1100.0
20260502020313 1 67 3.2 4.8 0.00 0.00 0.00 86 1100.0
20260502015313 1 67 3.2 1.6 0.00 0.00 0.00 84 1100.0
20260502014312 1 67 3.2 1.6 0.00 0.00 0.00 84 1100.0
20260502013311 1 22 3.2 1.6 0.00 0.00 0.00 84 1100.0
20260502012312 1 22 3.2 1.6 0.00 0.00 0.00 84 1100.0
20260502011311 1 45 1.6 3.2 0.00 0.00 0.00 84 1100.0
20260502010312 1 45 1.6 3.2 0.00 0.00 0.00 84 1100.0
20260502005311 2 45 1.6 0.0 0.00 0.00 0.00 84 1100.0
20260502004311 2 45 1.6 0.0 0.00 0.00 0.00 84 1100.0
20260502003311 2 22 3.2 3.2 0.00 0.00 0.00 84 1100.0
20260502002311 2 22 3.2 3.2 0.00 0.00 0.00 84 1100.0
20260502001312 2 112 1.6 3.2 0.00 0.00 0.00 83 1100.0
20260502000311 2 112 1.6 3.2 0.00 0.00 0.00 83 1100.0
20260501235312 2 337 1.6 1.6 0.00 0.00 0.00 82 1100.0
20260501234310 2 337 1.6 1.6 0.00 0.00 0.00 82 1100.0
20260501233311 2 45 1.6 3.2 0.00 0.00 0.00 81 1100.0
20260501232310 2 45 1.6 3.2 0.00 0.00 0.00 81 1100.0
20260501231309 2 22 1.6 3.2 0.00 0.00 0.00 81 1100.0
20260501230309 2 22 1.6 3.2 0.00 0.00 0.00 81 1100.0
20260501225309 2 45 3.2 3.2 0.00 0.00 0.00 80 1100.0
20260501224315 2 45 3.2 3.2 0.00 0.00 0.00 80 1100.0
20260501223314 2 22 3.2 3.2 0.00 0.00 0.00 80 1100.0
20260501222314 2 22 3.2 3.2 0.00 0.00 0.00 80 1100.0
20260501221314 3 67 1.6 3.2 0.00 0.00 0.00 78 1100.0
20260501220314 3 67 1.6 3.2 0.00 0.00 0.00 78 1100.0
20260501215315 3 45 1.6 3.2 0.00 0.00 0.00 78 1100.0
20260501214314 3 45 1.6 3.2 0.00 0.00 0.00 78 1100.0
20260501213313 3 360 1.6 1.6 0.00 0.00 0.00 76 1100.0
20260501212313 3 360 1.6 1.6 0.00 0.00 0.00 76 1100.0
20260501211313 3 22 1.6 0.0 0.00 0.00 0.00 76 1100.0
20260501210314 3 22 1.6 0.0 0.00 0.00 0.00 76 1100.0
20260501205314 4 67 1.6 1.6 0.00 0.00 0.00 77 1100.0
20260501204312 4 67 1.6 1.6 0.00 0.00 0.00 77 1100.0
20260501203314 5 45 0.0 0.0 0.00 0.00 0.00 73 1100.0
20260501202312 5 45 0.0 0.0 0.00 0.00 0.00 73 1100.0
20260501201312 5 67 1.6 0.0 0.00 0.00 0.00 74 1100.0